| time (UTC) | temp C | wind direction | speed KPH | gust KPH | rain 1hr cm | rain 24hr cm | rain mn cm | humidity % | barometer mb |
| 20260904032711 | 24 | 203 | 0.0 | 0.0 | 0.00 | 0.00 | 0.00 | 99 | 1019.3 |
| 20260904031525 | 24 | 225 | 0.0 | 0.0 | 0.00 | 0.00 | 0.00 | 99 | 1019.3 |
| 20260904030349 | 24 | 225 | 0.0 | 0.0 | 0.00 | 0.00 | 0.00 | 99 | 1019.3 |
| 20260904025749 | 24 | 225 | 0.0 | 0.0 | 0.00 | 0.00 | 0.00 | 99 | 1019.3 |
| 20260904025117 | 24 | 225 | 0.0 | 0.0 | 0.00 | 0.00 | 0.00 | 99 | 1019.3 |
| 20260904024522 | 24 | 180 | 0.0 | 0.0 | 0.00 | 0.00 | 0.00 | 99 | 1019.3 |
| 20260904023913 | 25 | 270 | 0.0 | 0.0 | 0.00 | 0.00 | 0.00 | 99 | 1019.3 |
| 20260904023327 | 25 | 203 | 0.0 | 0.0 | 0.00 | 0.00 | 0.00 | 99 | 1019.3 |
| 20260904022749 | 25 | 225 | 0.0 | 0.0 | 0.00 | 0.00 | 0.00 | 99 | 1019.3 |
| 20260904022113 | 25 | 203 | 0.0 | 0.0 | 0.00 | 0.00 | 0.00 | 99 | 1019.3 |
| 20260904021516 | 25 | 203 | 0.0 | 0.0 | 0.00 | 0.00 | 0.00 | 99 | 1019.3 |
| 20260904020922 | 25 | 203 | 0.0 | 3.2 | 0.00 | 0.00 | 0.00 | 99 | 1019.3 |
| 20260904020329 | 25 | 203 | 0.0 | 0.0 | 0.00 | 0.00 | 0.00 | 99 | 1018.9 |
| 20260904015747 | 25 | 225 | 0.0 | 0.0 | 0.00 | 0.00 | 0.00 | 99 | 1018.9 |
| 20260904015110 | 25 | 203 | 0.0 | 0.0 | 0.00 | 0.00 | 0.00 | 99 | 1018.9 |
| 20260904014550 | 25 | 248 | 1.6 | 1.6 | 0.00 | 0.00 | 0.00 | 99 | 1018.9 |
| 20260904013945 | 25 | 203 | 0.0 | 3.2 | 0.00 | 0.00 | 0.00 | 99 | 1018.9 |
| 20260904013321 | 25 | 203 | 3.2 | 3.2 | 0.00 | 0.00 | 0.00 | 99 | 1018.9 |
| 20260904012716 | 26 | 180 | 0.0 | 0.0 | 0.00 | 0.00 | 0.00 | 99 | 1018.9 |
| 20260904012125 | 26 | 225 | 0.0 | 0.0 | 0.00 | 0.00 | 0.00 | 99 | 1018.9 |
| 20260904011515 | 26 | 225 | 0.0 | 0.0 | 0.00 | 0.00 | 0.00 | 99 | 1018.9 |
| 20260904010320 | 26 | 225 | 3.2 | 3.2 | 0.00 | 0.00 | 0.00 | 99 | 1018.9 |
| 20260904005735 | 26 | 225 | 0.0 | 0.0 | 0.00 | 0.00 | 0.00 | 99 | 1018.6 |
| 20260904005115 | 26 | 225 | 0.0 | 0.0 | 0.00 | 0.00 | 0.00 | 99 | 1018.6 |
| 20260904004546 | 27 | 225 | 0.0 | 0.0 | 0.00 | 0.00 | 0.00 | 99 | 1018.6 |
| 20260904003911 | 27 | 248 | 1.6 | 3.2 | 0.00 | 0.00 | 0.00 | 99 | 1018.6 |
| 20260904003324 | 27 | 248 | 0.0 | 3.2 | 0.00 | 0.00 | 0.00 | 99 | 1018.2 |
| 20260904002733 | 27 | 248 | 1.6 | 3.2 | 0.00 | 0.00 | 0.00 | 98 | 1018.2 |
| 20260904002120 | 27 | 225 | 3.2 | 3.2 | 0.00 | 0.00 | 0.00 | 97 | 1018.2 |
| 20260904001507 | 27 | 203 | 3.2 | 3.2 | 0.00 | 0.00 | 0.00 | 98 | 1018.2 |
| 20260904000920 | 27 | 203 | 3.2 | 3.2 | 0.00 | 0.00 | 0.00 | 96 | 1017.9 |
| 20260904000311 | 28 | 203 | 3.2 | 4.8 | 0.00 | 0.00 | 0.00 | 94 | 1017.9 |
| 20260903235729 | 28 | 203 | 3.2 | 3.2 | 0.00 | 0.00 | 0.00 | 91 | 1017.9 |
| 20260903235134 | 29 | 203 | 3.2 | 3.2 | 0.00 | 0.00 | 0.00 | 90 | 1017.9 |
| 20260903234549 | 29 | 203 | 3.2 | 3.2 | 0.00 | 0.00 | 0.00 | 90 | 1017.9 |
| 20260903233921 | 29 | 225 | 4.8 | 6.4 | 0.00 | 0.00 | 0.00 | 90 | 1017.9 |
| 20260903233348 | 30 | 203 | 6.4 | 6.4 | 0.00 | 0.00 | 0.00 | 88 | 1017.9 |
| 20260903232711 | 30 | 203 | 4.8 | 4.8 | 0.00 | 0.00 | 0.00 | 85 | 1017.9 |
| 20260903232111 | 31 | 180 | 3.2 | 3.2 | 0.00 | 0.00 | 0.00 | 84 | 1017.6 |
| 20260903231545 | 31 | 203 | 3.2 | 4.8 | 0.00 | 0.00 | 0.00 | 83 | 1017.6 |
| 20260903230912 | 32 | 203 | 4.8 | 6.4 | 0.00 | 0.00 | 0.00 | 80 | 1017.6 |
| 20260903230333 | 33 | 180 | 3.2 | 4.8 | 0.00 | 0.00 | 0.00 | 75 | 1017.6 |
| 20260903225727 | 34 | 203 | 3.2 | 4.8 | 0.00 | 0.00 | 0.00 | 72 | 1017.6 |
| 20260903225135 | 33 | 180 | 4.8 | 4.8 | 0.00 | 0.00 | 0.00 | 74 | 1017.2 |
| 20260903224512 | 34 | 180 | 4.8 | 4.8 | 0.00 | 0.00 | 0.00 | 73 | 1017.2 |
| 20260903223934 | 34 | 225 | 3.2 | 4.8 | 0.00 | 0.00 | 0.00 | 71 | 1016.9 |
| 20260903223349 | 33 | 180 | 4.8 | 6.4 | 0.00 | 0.00 | 0.00 | 73 | 1016.9 |
| 20260903222714 | 34 | 203 | 4.8 | 4.8 | 0.00 | 0.00 | 0.00 | 71 | 1016.9 |
| 20260903221520 | 35 | 180 | 4.8 | 4.8 | 0.00 | 0.00 | 0.00 | 66 | 1016.9 |
| 20260903220942 | 35 | 203 | 4.8 | 4.8 | 0.00 | 0.00 | 0.00 | 66 | 1016.9 |
| 20260903220317 | 36 | 225 | 3.2 | 4.8 | 0.00 | 0.00 | 0.00 | 66 | 1016.9 |
| 20260903215722 | 36 | 225 | 3.2 | 4.8 | 0.00 | 0.00 | 0.00 | 62 | 1016.9 |
| 20260903215142 | 36 | 158 | 3.2 | 3.2 | 0.00 | 0.00 | 0.00 | 62 | 1017.2 |
| 20260903214506 | 35 | 225 | 3.2 | 3.2 | 0.00 | 0.00 | 0.00 | 63 | 1016.9 |
| 20260903213336 | 36 | 203 | 3.2 | 4.8 | 0.00 | 0.00 | 0.00 | 61 | 1017.2 |
| 20260903212722 | 37 | 293 | 0.0 | 6.4 | 0.00 | 0.00 | 0.00 | 59 | 1017.2 |
| 20260903212112 | 37 | 203 | 3.2 | 3.2 | 0.00 | 0.00 | 0.00 | 60 | 1017.2 |
| 20260903211534 | 37 | 225 | 3.2 | 3.2 | 0.00 | 0.00 | 0.00 | 59 | 1017.6 |
| 20260903210324 | 37 | 180 | 4.8 | 6.4 | 0.00 | 0.00 | 0.00 | 60 | 1017.6 |
| 20260903205707 | 36 | 135 | 3.2 | 8.0 | 0.00 | 0.00 | 0.00 | 59 | 1017.9 |
| 20260903205146 | 37 | 225 | 4.8 | 8.0 | 0.00 | 0.00 | 0.00 | 60 | 1017.9 |
| 20260903204536 | 36 | 248 | 3.2 | 8.0 | 0.00 | 0.00 | 0.00 | 60 | 1017.9 |
| 20260903203919 | 37 | 180 | 3.2 | 6.4 | 0.00 | 0.00 | 0.00 | 59 | 1017.9 |
| 20260903203310 | 37 | 203 | 3.2 | 6.4 | 0.00 | 0.00 | 0.00 | 59 | 1017.9 |
| 20260903202114 | 36 | 203 | 4.8 | 4.8 | 0.00 | 0.00 | 0.00 | 58 | 1017.9 |
| 20260903201522 | 37 | 203 | 6.4 | 6.4 | 0.00 | 0.00 | 0.00 | 58 | 1018.2 |
| 20260903200908 | 37 | 270 | 4.8 | 4.8 | 0.00 | 0.00 | 0.00 | 58 | 1018.2 |
| 20260903200344 | 37 | 203 | 6.4 | 6.4 | 0.00 | 0.00 | 0.00 | 58 | 1018.2 |
| 20260903195707 | 38 | 293 | 3.2 | 8.0 | 0.00 | 0.00 | 0.00 | 56 | 1018.2 |
| 20260903195111 | 38 | 270 | 3.2 | 4.8 | 0.00 | 0.00 | 0.00 | 57 | 1018.2 |
| 20260903194544 | 37 | 248 | 6.4 | 6.4 | 0.00 | 0.00 | 0.00 | 57 | 1018.2 |
| 20260903193947 | 37 | 225 | 1.6 | 9.7 | 0.00 | 0.00 | 0.00 | 57 | 1018.6 |
| 20260903192714 | 37 | 338 | 4.8 | 4.8 | 0.00 | 0.00 | 0.00 | 58 | 1018.6 |
| 20260903192139 | 37 | 180 | 6.4 | 6.4 | 0.00 | 0.00 | 0.00 | 58 | 1018.9 |
| 20260903191546 | 37 | 113 | 3.2 | 3.2 | 0.00 | 0.00 | 0.00 | 58 | 1018.9 |
| 20260903190945 | 37 | 0 | 3.2 | 6.4 | 0.00 | 0.00 | 0.00 | 59 | 1018.9 |
| 20260903190337 | 37 | 23 | 3.2 | 6.4 | 0.00 | 0.00 | 0.00 | 58 | 1019.3 |
| 20260903185112 | 37 | 248 | 4.8 | 4.8 | 0.00 | 0.00 | 0.00 | 58 | 1018.9 |
| 20260903184523 | 37 | 225 | 3.2 | 4.8 | 0.00 | 0.00 | 0.00 | 57 | 1019.3 |
| 20260903183933 | 37 | 45 | 3.2 | 4.8 | 0.00 | 0.00 | 0.00 | 57 | 1019.3 |
| 20260903183306 | 37 | 180 | 3.2 | 6.4 | 0.00 | 0.00 | 0.00 | 56 | 1019.3 |
| 20260903182707 | 39 | 270 | 1.6 | 6.4 | 0.00 | 0.00 | 0.00 | 54 | 1019.3 |
| 20260903182137 | 38 | 45 | 6.4 | 6.4 | 0.00 | 0.00 | 0.00 | 54 | 1019.3 |
| 20260903181538 | 38 | 23 | 4.8 | 8.0 | 0.00 | 0.00 | 0.00 | 54 | 1019.3 |
| 20260903180926 | 37 | 0 | 4.8 | 8.0 | 0.00 | 0.00 | 0.00 | 57 | 1019.3 |
| 20260903180346 | 37 | 45 | 4.8 | 9.7 | 0.00 | 0.00 | 0.00 | 58 | 1019.3 |
| 20260903175707 | 36 | 315 | 1.6 | 6.4 | 0.00 | 0.00 | 0.00 | 57 | 1019.6 |
| 20260903175119 | 36 | 45 | 0.0 | 3.2 | 0.00 | 0.00 | 0.00 | 58 | 1019.6 |
| 20260903174541 | 37 | 23 | 3.2 | 3.2 | 0.00 | 0.00 | 0.00 | 57 | 1019.6 |
| 20260903173943 | 37 | 180 | 1.6 | 4.8 | 0.00 | 0.00 | 0.00 | 58 | 1019.6 |
| 20260903173347 | 37 | 315 | 3.2 | 6.4 | 0.00 | 0.00 | 0.00 | 59 | 1019.6 |
| 20260903172111 | 36 | 203 | 0.0 | 6.4 | 0.00 | 0.00 | 0.00 | 60 | 1019.6 |
| 20260903171521 | 36 | 225 | 3.2 | 3.2 | 0.00 | 0.00 | 0.00 | 63 | 1019.9 |
| 20260903170347 | 36 | 45 | 8.0 | 9.7 | 0.00 | 0.00 | 0.00 | 62 | 1019.9 |
| 20260903165747 | 36 | 225 | 0.0 | 1.6 | 0.00 | 0.00 | 0.00 | 64 | 1019.9 |
| 20260903165109 | 36 | 203 | 3.2 | 3.2 | 0.00 | 0.00 | 0.00 | 63 | 1019.9 |
| 20260903164514 | 36 | 203 | 3.2 | 3.2 | 0.00 | 0.00 | 0.00 | 66 | 1019.9 |
| 20260903163922 | 35 | 203 | 4.8 | 9.7 | 0.00 | 0.00 | 0.00 | 67 | 1020.3 |
| 20260903163314 | 36 | 180 | 4.8 | 6.4 | 0.00 | 0.00 | 0.00 | 68 | 1020.3 |
| 20260903162743 | 35 | 158 | 1.6 | 8.0 | 0.00 | 0.00 | 0.00 | 69 | 1020.3 |
| 20260903162108 | 35 | 180 | 1.6 | 3.2 | 0.00 | 0.00 | 0.00 | 70 | 1020.3 |
| 20260903160909 | 35 | 248 | 1.6 | 8.0 | 0.00 | 0.00 | 0.00 | 72 | 1020.6 |
| 20260903160307 | 35 | 203 | 3.2 | 4.8 | 0.00 | 0.00 | 0.00 | 73 | 1020.6 |
| 20260903155750 | 35 | 203 | 6.4 | 6.4 | 0.00 | 0.00 | 0.00 | 73 | 1020.6 |
| 20260903155146 | 34 | 203 | 4.8 | 6.4 | 0.00 | 0.00 | 0.00 | 73 | 1020.6 |
| 20260903154550 | 34 | 203 | 3.2 | 4.8 | 0.00 | 0.00 | 0.00 | 74 | 1020.6 |
| 20260903153930 | 34 | 158 | 6.4 | 6.4 | 0.00 | 0.00 | 0.00 | 73 | 1020.6 |
| 20260903153332 | 33 | 203 | 3.2 | 4.8 | 0.00 | 0.00 | 0.00 | 74 | 1020.6 |
| 20260903152749 | 34 | 225 | 3.2 | 3.2 | 0.00 | 0.00 | 0.00 | 75 | 1020.6 |
| 20260903152117 | 33 | 135 | 3.2 | 4.8 | 0.00 | 0.00 | 0.00 | 77 | 1020.6 |
| 20260903151534 | 33 | 225 | 1.6 | 4.8 | 0.00 | 0.00 | 0.00 | 77 | 1020.6 |
| 20260903150909 | 32 | 203 | 3.2 | 3.2 | 0.00 | 0.00 | 0.00 | 78 | 1020.6 |
| 20260903150336 | 33 | 0 | 3.2 | 3.2 | 0.00 | 0.00 | 0.00 | 76 | 1020.6 |
| 20260903145721 | 32 | 203 | 0.0 | 3.2 | 0.00 | 0.00 | 0.00 | 80 | 1020.6 |
| 20260903145137 | 32 | 203 | 0.0 | 3.2 | 0.00 | 0.00 | 0.00 | 80 | 1020.6 |
| 20260903144524 | 32 | 180 | 4.8 | 4.8 | 0.00 | 0.00 | 0.00 | 80 | 1020.6 |
| 20260903143911 | 31 | 23 | 3.2 | 4.8 | 0.00 | 0.00 | 0.00 | 80 | 1020.6 |
| 20260903143349 | 31 | 180 | 3.2 | 3.2 | 0.00 | 0.00 | 0.00 | 81 | 1020.6 |
| 20260903142717 | 31 | 203 | 0.0 | 1.6 | 0.00 | 0.00 | 0.00 | 83 | 1020.6 |
| 20260903141520 | 30 | 158 | 3.2 | 3.2 | 0.00 | 0.00 | 0.00 | 85 | 1020.6 |
| 20260903140339 | 29 | 68 | 0.0 | 3.2 | 0.00 | 0.00 | 0.00 | 88 | 1020.9 |
| 20260903135710 | 29 | 270 | 0.0 | 1.6 | 0.00 | 0.00 | 0.00 | 86 | 1020.9 |
| 20260903135149 | 28 | 225 | 1.6 | 3.2 | 0.00 | 0.00 | 0.00 | 89 | 1020.9 |
| 20260903134538 | 28 | 203 | 1.6 | 1.6 | 0.00 | 0.00 | 0.00 | 89 | 1020.9 |
| 20260903133922 | 27 | 225 | 1.6 | 1.6 | 0.00 | 0.00 | 0.00 | 92 | 1020.9 |
| 20260903132118 | 26 | 225 | 0.0 | 1.6 | 0.00 | 0.00 | 0.00 | 95 | 1020.9 |
| 20260903131542 | 26 | 180 | 0.0 | 0.0 | 0.00 | 0.00 | 0.00 | 95 | 1021.3 |
| 20260903130912 | 26 | 203 | 0.0 | 0.0 | 0.00 | 0.00 | 0.00 | 97 | 1021.3 |
| 20260903130309 | 25 | 180 | 0.0 | 0.0 | 0.00 | 0.00 | 0.00 | 99 | 1021.3 |
| 20260903125748 | 25 | 203 | 0.0 | 0.0 | 0.00 | 0.00 | 0.00 | 99 | 1021.6 |
| 20260903125122 | 24 | 45 | 0.0 | 0.0 | 0.00 | 0.00 | 0.00 | 99 | 1021.6 |
| 20260903124521 | 24 | 68 | 0.0 | 0.0 | 0.00 | 0.00 | 0.00 | 99 | 1021.6 |
| 20260903122715 | 23 | 158 | 0.0 | 0.0 | 0.00 | 0.00 | 0.00 | 99 | 1021.3 |
| 20260903122150 | 23 | 293 | 0.0 | 0.0 | 0.00 | 0.00 | 0.00 | 99 | 1021.3 |
| 20260903120946 | 22 | 293 | 0.0 | 1.6 | 0.00 | 0.00 | 0.00 | 99 | 1021.3 |
| 20260903120332 | 22 | 293 | 0.0 | 0.0 | 0.00 | 0.00 | 0.00 | 99 | 1021.3 |
| 20260903115741 | 21 | 270 | 0.0 | 0.0 | 0.00 | 0.00 | 0.00 | 99 | 1021.3 |
| 20260903115112 | 21 | 225 | 0.0 | 0.0 | 0.00 | 0.00 | 0.00 | 99 | 1021.3 |
| 20260903114544 | 21 | 0 | 0.0 | 0.0 | 0.00 | 0.00 | 0.00 | 99 | 1021.3 |
| 20260903113906 | 21 | 270 | 0.0 | 1.6 | 0.00 | 0.00 | 0.00 | 99 | 1020.9 |
| 20260903113322 | 21 | 203 | 0.0 | 0.0 | 0.00 | 0.00 | 0.00 | 99 | 1020.9 |
| 20260903112724 | 21 | 338 | 0.0 | 0.0 | 0.00 | 0.00 | 0.00 | 99 | 1020.9 |
| 20260903112110 | 21 | 248 | 0.0 | 0.0 | 0.00 | 0.00 | 0.00 | 99 | 1020.9 |
| 20260903111518 | 21 | 203 | 0.0 | 0.0 | 0.00 | 0.00 | 0.00 | 99 | 1020.9 |
| 20260903110912 | 21 | 270 | 0.0 | 0.0 | 0.00 | 0.00 | 0.00 | 99 | 1020.6 |
| 20260903110347 | 21 | 158 | 3.2 | 3.2 | 0.00 | 0.00 | 0.00 | 99 | 1020.6 |
| 20260903105709 | 21 | 203 | 1.6 | 1.6 | 0.00 | 0.00 | 0.00 | 99 | 1020.6 |
| 20260903104523 | 21 | 203 | 0.0 | 0.0 | 0.00 | 0.00 | 0.00 | 99 | 1020.6 |
| 20260903103932 | 21 | 203 | 0.0 | 0.0 | 0.00 | 0.00 | 0.00 | 99 | 1020.6 |
| 20260903102724 | 21 | 248 | 0.0 | 0.0 | 0.00 | 0.00 | 0.00 | 99 | 1020.6 |
| 20260903101537 | 21 | 225 | 0.0 | 0.0 | 0.00 | 0.00 | 0.00 | 99 | 1020.3 |
| 20260903100939 | 21 | 203 | 0.0 | 0.0 | 0.00 | 0.00 | 0.00 | 99 | 1020.3 |
| 20260903100316 | 21 | 203 | 0.0 | 0.0 | 0.00 | 0.00 | 0.00 | 99 | 1020.3 |
| 20260903095728 | 21 | 203 | 0.0 | 0.0 | 0.00 | 0.00 | 0.00 | 99 | 1020.3 |
| 20260903093345 | 21 | 270 | 0.0 | 0.0 | 0.00 | 0.00 | 0.00 | 99 | 1020.3 |
| 20260903092706 | 21 | 225 | 0.0 | 0.0 | 0.00 | 0.00 | 0.00 | 99 | 1020.3 |
| 20260903092127 | 21 | 225 | 0.0 | 0.0 | 0.00 | 0.00 | 0.00 | 99 | 1020.3 |
| 20260903091542 | 21 | 203 | 0.0 | 0.0 | 0.00 | 0.00 | 0.00 | 99 | 1020.3 |
| 20260903090914 | 21 | 203 | 0.0 | 0.0 | 0.00 | 0.00 | 0.00 | 99 | 1020.3 |
| 20260903090341 | 21 | 248 | 0.0 | 0.0 | 0.00 | 0.00 | 0.00 | 99 | 1020.3 |
| 20260903085130 | 21 | 203 | 0.0 | 0.0 | 0.00 | 0.00 | 0.00 | 99 | 1020.3 |
| 20260903084549 | 21 | 225 | 0.0 | 0.0 | 0.00 | 0.00 | 0.00 | 99 | 1020.3 |
| 20260903083943 | 21 | 270 | 0.0 | 0.0 | 0.00 | 0.00 | 0.00 | 99 | 1020.3 |
| 20260903083337 | 21 | 248 | 0.0 | 0.0 | 0.00 | 0.00 | 0.00 | 99 | 1020.3 |
| 20260903082709 | 21 | 248 | 0.0 | 0.0 | 0.00 | 0.00 | 0.00 | 99 | 1020.3 |
| 20260903080311 | 22 | 270 | 0.0 | 0.0 | 0.00 | 0.00 | 0.00 | 99 | 1020.3 |
| 20260903075721 | 22 | 225 | 0.0 | 0.0 | 0.00 | 0.00 | 0.00 | 99 | 1020.3 |
| 20260903074521 | 22 | 203 | 0.0 | 0.0 | 0.00 | 0.00 | 0.00 | 99 | 1020.3 |
| 20260903073915 | 22 | 248 | 0.0 | 0.0 | 0.00 | 0.00 | 0.00 | 99 | 1020.3 |
| 20260903073311 | 22 | 225 | 0.0 | 0.0 | 0.00 | 0.00 | 0.00 | 99 | 1020.3 |
| 20260903072115 | 22 | 0 | 0.0 | 0.0 | 0.00 | 0.00 | 0.00 | 99 | 1019.9 |
| 20260903071506 | 22 | 45 | 0.0 | 0.0 | 0.00 | 0.00 | 0.00 | 99 | 1019.9 |
| 20260903070338 | 22 | 225 | 0.0 | 0.0 | 0.00 | 0.00 | 0.00 | 99 | 1020.3 |
| 20260903064530 | 22 | 203 | 0.0 | 0.0 | 0.00 | 0.00 | 0.00 | 99 | 1020.3 |
| 20260903063923 | 22 | 203 | 0.0 | 3.2 | 0.00 | 0.00 | 0.00 | 99 | 1019.9 |
| 20260903063349 | 22 | 113 | 0.0 | 0.0 | 0.00 | 0.00 | 0.00 | 99 | 1019.9 |
| 20260903062738 | 22 | 270 | 0.0 | 0.0 | 0.00 | 0.00 | 0.00 | 99 | 1019.9 |
| 20260903061509 | 22 | 225 | 0.0 | 0.0 | 0.00 | 0.00 | 0.00 | 99 | 1019.9 |
| 20260903055742 | 22 | 248 | 0.0 | 0.0 | 0.00 | 0.00 | 0.00 | 99 | 1020.3 |
| 20260903055123 | 22 | 203 | 0.0 | 0.0 | 0.00 | 0.00 | 0.00 | 99 | 1020.3 |
| 20260903054511 | 22 | 203 | 0.0 | 0.0 | 0.00 | 0.00 | 0.00 | 99 | 1019.9 |
| 20260903053912 | 22 | 203 | 0.0 | 0.0 | 0.00 | 0.00 | 0.00 | 99 | 1020.3 |
| 20260903053326 | 22 | 203 | 0.0 | 0.0 | 0.00 | 0.00 | 0.00 | 99 | 1020.3 |
| 20260903052716 | 22 | 225 | 0.0 | 0.0 | 0.00 | 0.00 | 0.00 | 99 | 1020.3 |
| 20260903052140 | 22 | 225 | 0.0 | 0.0 | 0.00 | 0.00 | 0.00 | 99 | 1020.3 |
| 20260903051516 | 22 | 203 | 0.0 | 0.0 | 0.00 | 0.00 | 0.00 | 99 | 1020.3 |
| 20260903050946 | 22 | 225 | 0.0 | 0.0 | 0.00 | 0.00 | 0.00 | 99 | 1020.3 |
| 20260903050316 | 22 | 248 | 0.0 | 0.0 | 0.00 | 0.00 | 0.00 | 99 | 1020.3 |
| 20260903045748 | 22 | 293 | 0.0 | 0.0 | 0.00 | 0.00 | 0.00 | 99 | 1019.9 |
| 20260903045134 | 22 | 113 | 0.0 | 0.0 | 0.00 | 0.00 | 0.00 | 99 | 1019.9 |
| 20260903044533 | 23 | 225 | 0.0 | 0.0 | 0.00 | 0.00 | 0.00 | 99 | 1020.3 |
| 20260903043325 | 23 | 225 | 0.0 | 0.0 | 0.00 | 0.00 | 0.00 | 99 | 1020.3 |
| 20260903042124 | 23 | 270 | 0.0 | 0.0 | 0.00 | 0.00 | 0.00 | 99 | 1020.3 |
| 20260903041529 | 23 | 203 | 0.0 | 0.0 | 0.00 | 0.00 | 0.00 | 99 | 1020.3 |
| 20260903040939 | 23 | 225 | 0.0 | 0.0 | 0.00 | 0.00 | 0.00 | 99 | 1020.3 |
| 20260903040314 | 23 | 225 | 0.0 | 0.0 | 0.00 | 0.00 | 0.00 | 99 | 1020.3 |
| 20260903035743 | 23 | 225 | 0.0 | 0.0 | 0.00 | 0.00 | 0.00 | 99 | 1020.3 |
| 20260903035135 | 23 | 203 | 0.0 | 0.0 | 0.00 | 0.00 | 0.00 | 99 | 1020.3 |
| 20260903034513 | 23 | 203 | 0.0 | 0.0 | 0.00 | 0.00 | 0.00 | 99 | 1020.3 |
| 20260903033911 | 23 | 203 | 0.0 | 0.0 | 0.00 | 0.00 | 0.00 | 99 | 1020.3 |
| 20260903033312 | 23 | 203 | 0.0 | 0.0 | 0.00 | 0.00 | 0.00 | 99 | 1020.3 |